Princeton, MN

5:20 PM CDT on March 23, 2017 (GMT -0500)
Princeton Municipal

Weather History for KPNM - April, 2013

Change the Weather History Date:

Monday, April 22, 2013

  Actual Average Record
Temperature  
Mean Temperature 36 °F -  
Max Temperature 41 °F 59 °F 71 °F (2007)
Min Temperature 30 °F 33 °F 26 °F (2002)
Degree Days  
Heating Degree Days 30    
Moisture  
Dew Point 28 °F    
Average Humidity 77    
Maximum Humidity 100    
Minimum Humidity 49    
Precipitation  
Precipitation 0.01 in - - ()
Sea Level Pressure  
Sea Level Pressure 30.19 in    
Wind  
Wind Speed 8 mph (NNW)    
Max Wind Speed 16 mph    
Max Gust Speed 22 mph    
Visibility 8 miles    
Events Snow    
Averages and records for this station are not official NWS values.
T = Trace of Precipitation, MM = Missing Value Source: NWS Daily Summary

Daily Weather History Graph

Daily Weather History Graph

Search for Another Location

Airport or City:

Trip Planner

Search our weather history database for the weather conditions in past years. The results will help you decide how hot, cold, wet, or windy it might be!

Date:

Astronomy

Apr. 22, 2013 Rise Set
Actual Time 6:16 AM CDT 8:10 PM CDT
Civil Twilight 5:44 AM CDT 8:42 PM CDT
Nautical Twilight 5:05 AM CDT 9:21 PM CDT
Astronomical Twilight 4:23 AM CDT 10:03 PM CDT
Moon 4:51 PM CDT (4/22) 4:21 AM CDT (4/22)
Length of Visible Light 14h 57m
Length of Day
13h 53m
Waxing Gibbous, 88% of the Moon is Illuminated
Apr 22
Waxing Gibbous
Apr 25
Full
May 2
Last Quarter
May 9
New
May 17
First Quarter

Hourly Weather History & Observations

Time (CDT) Temp. Windchill Dew Point Humidity Pressure Visibility Wind Dir Wind Speed Gust Speed Precip Events Conditions
12:12 AM 35.6 °F 29.2 °F 33.8 °F 93% 30.13 in 10.0 mi WNW 8.1 mph 12.7 mph N/A   Overcast
12:31 AM 35.6 °F 29.9 °F 32.0 °F 87% 30.14 in 10.0 mi WNW 6.9 mph - N/A   Overcast
12:51 AM 35.6 °F 32.8 °F 32.0 °F 87% 30.14 in 10.0 mi WNW 3.5 mph - N/A   Overcast
1:12 AM 35.6 °F 29.9 °F 32.0 °F 87% 30.15 in 10.0 mi WNW 6.9 mph - N/A   Overcast
1:31 AM 35.6 °F 29.9 °F 32.0 °F 87% 30.15 in 10.0 mi WNW 6.9 mph - N/A   Overcast
1:51 AM 35.6 °F - 32.0 °F 87% 30.15 in 10.0 mi Calm Calm - N/A   Overcast
2:11 AM 35.6 °F 29.9 °F 30.2 °F 81% 30.15 in 10.0 mi NW 6.9 mph - N/A   Overcast
2:31 AM 35.6 °F 31.7 °F 30.2 °F 81% 30.16 in 10.0 mi NW 4.6 mph - N/A   Overcast
2:51 AM 35.6 °F 32.8 °F 30.2 °F 81% 30.16 in 10.0 mi NNW 3.5 mph - N/A   Overcast
3:11 AM 35.6 °F - 30.2 °F 81% 30.17 in 10.0 mi Calm Calm - N/A   Overcast
3:31 AM 33.8 °F - 30.2 °F 87% 30.16 in 10.0 mi Calm Calm - N/A   Overcast
3:51 AM 35.6 °F - 28.4 °F 75% 30.18 in 10.0 mi Calm Calm - N/A   Overcast
4:11 AM 35.6 °F 28.6 °F 28.4 °F 75% 30.19 in 10.0 mi NNW 9.2 mph - N/A   Overcast
4:31 AM 35.6 °F - 28.4 °F 75% 30.19 in 10.0 mi Calm Calm - N/A   Overcast
4:51 AM 33.8 °F 27.7 °F 28.4 °F 81% 30.20 in 10.0 mi NW 6.9 mph - N/A   Overcast
5:12 AM 33.8 °F 29.6 °F 26.6 °F 75% 30.19 in 10.0 mi NNW 4.6 mph - N/A   Overcast
5:31 AM 33.8 °F 30.8 °F 26.6 °F 75% 30.20 in 10.0 mi WNW 3.5 mph - 0.01 in   Mostly Cloudy
5:51 AM 33.8 °F 29.6 °F 26.6 °F 75% 30.19 in 10.0 mi NNW 4.6 mph - 0.01 in   Scattered Clouds
6:12 AM 32.0 °F 27.5 °F 26.6 °F 80% 30.20 in 10.0 mi NW 4.6 mph - N/A   Mostly Cloudy
6:31 AM 32.0 °F 27.5 °F 26.6 °F 80% 30.20 in 10.0 mi NNW 4.6 mph - N/A   Overcast
6:51 AM 32.0 °F 27.5 °F 26.6 °F 80% 30.22 in 10.0 mi NW 4.6 mph - N/A   Overcast
7:12 AM 32.0 °F 25.6 °F 26.6 °F 80% 30.21 in 10.0 mi NW 6.9 mph - N/A   Scattered Clouds
7:31 AM 33.8 °F 27.7 °F 26.6 °F 75% 30.21 in 10.0 mi NNW 6.9 mph - N/A   Clear
7:51 AM 33.8 °F 26.4 °F 26.6 °F 75% 30.20 in 10.0 mi North 9.2 mph - N/A   Clear
8:12 AM 33.8 °F 27.0 °F 26.6 °F 75% 30.20 in 10.0 mi North 8.1 mph - N/A   Clear
8:31 AM 33.8 °F 28.6 °F 26.6 °F 75% 30.21 in 10.0 mi NNW 5.8 mph - N/A   Scattered Clouds
8:51 AM 35.6 °F 28.0 °F 26.6 °F 70% 30.20 in 10.0 mi North 10.4 mph - N/A   Clear
9:12 AM 35.6 °F 28.0 °F 26.6 °F 70% 30.21 in 10.0 mi North 10.4 mph - N/A   Clear
9:31 AM 35.6 °F 28.6 °F 26.6 °F 70% 30.22 in 10.0 mi NNW 9.2 mph - N/A   Clear
9:51 AM 35.6 °F 28.0 °F 26.6 °F 70% 30.22 in 10.0 mi North 10.4 mph - N/A   Clear
10:12 AM 35.6 °F 29.2 °F 26.6 °F 70% 30.21 in 10.0 mi North 8.1 mph - N/A   Clear
10:31 AM 37.4 °F 31.4 °F 26.6 °F 65% 30.23 in 10.0 mi NNE 8.1 mph - N/A   Clear
10:51 AM 37.4 °F 30.8 °F 26.6 °F 65% 30.23 in 10.0 mi NNE 9.2 mph - N/A   Clear
11:11 AM 37.4 °F 32.1 °F 26.6 °F 65% 30.24 in 10.0 mi ENE 6.9 mph - N/A   Clear
11:31 AM 37.4 °F 31.4 °F 26.6 °F 65% 30.25 in 10.0 mi North 8.1 mph - N/A   Clear
11:51 AM 37.4 °F 31.4 °F 28.4 °F 70% 30.23 in 10.0 mi North 8.1 mph - N/A   Clear
12:11 PM 39.2 °F 32.0 °F 26.6 °F 61% 30.21 in 10.0 mi North 11.5 mph 17.3 mph N/A   Scattered Clouds
12:31 PM 39.2 °F 32.0 °F 26.6 °F 61% 30.20 in 10.0 mi North 11.5 mph - N/A   Mostly Cloudy
12:51 PM 39.2 °F 31.2 °F 26.6 °F 61% 30.19 in 10.0 mi NNE 13.8 mph 21.9 mph N/A   Overcast
1:11 PM 39.2 °F 32.0 °F 26.6 °F 61% 30.18 in 10.0 mi NNE 11.5 mph - N/A   Overcast
1:31 PM 41.0 °F 33.1 °F 26.6 °F 57% 30.16 in 10.0 mi NNE 15.0 mph 21.9 mph N/A   Mostly Cloudy
1:51 PM 39.2 °F 30.8 °F 21.2 °F 49% 30.15 in 10.0 mi North 15.0 mph - N/A   Mostly Cloudy
2:11 PM 39.2 °F 33.0 °F 21.2 °F 49% 30.19 in 10.0 mi North 9.2 mph 20.7 mph N/A   Mostly Cloudy
2:31 PM 39.2 °F 31.2 °F 21.2 °F 49% 30.20 in 10.0 mi North 13.8 mph 18.4 mph N/A   Scattered Clouds
2:51 PM 39.2 °F 31.6 °F 24.8 °F 56% 30.20 in 10.0 mi NNW 12.7 mph - N/A   Scattered Clouds
3:11 PM 39.2 °F 32.0 °F 24.8 °F 56% 30.20 in 10.0 mi North 11.5 mph 18.4 mph N/A   Scattered Clouds
3:31 PM 39.2 °F 31.2 °F 23.0 °F 52% 30.18 in 10.0 mi North 13.8 mph - N/A   Scattered Clouds
3:51 PM 37.4 °F 29.3 °F 23.0 °F 56% 30.16 in 10.0 mi North 12.7 mph 17.3 mph N/A   Mostly Cloudy
4:11 PM 37.4 °F 28.5 °F 23.0 °F 56% 30.15 in 10.0 mi NNW 15.0 mph - N/A   Mostly Cloudy
4:31 PM 37.4 °F 28.2 °F 24.8 °F 60% 30.16 in 10.0 mi North 16.1 mph 21.9 mph N/A   Mostly Cloudy
4:52 PM 35.6 °F 26.2 °F 24.8 °F 65% 30.17 in 10.0 mi NNW 15.0 mph - N/A   Overcast
5:11 PM 35.6 °F 27.1 °F 26.6 °F 70% 30.17 in 10.0 mi NNW 12.7 mph - N/A Snow Light Snow
5:31 PM 33.8 °F 25.3 °F 28.4 °F 81% 30.17 in 1.5 mi NNW 11.5 mph - N/A Snow Light Snow
5:52 PM 32.0 °F 24.2 °F 28.4 °F 87% 30.18 in 0.8 mi NNW 9.2 mph - N/A Snow Light Snow
6:11 PM 32.0 °F 23.0 °F 30.2 °F 93% 30.19 in 0.5 mi NNW 11.5 mph - N/A Snow Snow
6:31 PM 30.2 °F 20.8 °F 30.2 °F 100% 30.18 in 0.2 mi NNW 11.5 mph - N/A Snow Snow
6:52 PM 30.2 °F 21.3 °F 30.2 °F 100% 30.18 in 0.2 mi North 10.4 mph - N/A Snow Snow
7:11 PM 30.2 °F 21.9 °F 30.2 °F 100% 30.17 in 0.5 mi North 9.2 mph - N/A Snow Snow
7:31 PM 30.2 °F 21.9 °F 30.2 °F 100% 30.18 in 1.0 mi NNW 9.2 mph - N/A Snow Light Snow
7:52 PM 30.2 °F 21.3 °F 28.4 °F 93% 30.18 in 1.5 mi NNW 10.4 mph 16.1 mph N/A Snow Light Snow
8:11 PM 30.2 °F 21.3 °F 28.4 °F 93% 30.18 in 1.5 mi NNW 10.4 mph 16.1 mph N/A Snow Light Snow
8:31 PM 30.2 °F 20.8 °F 28.4 °F 93% 30.18 in 2.0 mi NNW 11.5 mph 18.4 mph N/A Snow Light Snow
8:52 PM 30.2 °F 21.9 °F 28.4 °F 93% 30.18 in 1.8 mi NNW 9.2 mph - N/A Snow Light Snow
9:11 PM 30.2 °F 21.3 °F 28.4 °F 93% 30.18 in 1.8 mi NNW 10.4 mph - N/A Snow Light Snow
9:31 PM 30.2 °F 20.2 °F 28.4 °F 93% 30.18 in 2.5 mi North 12.7 mph 17.3 mph N/A Snow Light Snow
9:52 PM 30.2 °F 20.8 °F 28.4 °F 93% 30.18 in 2.5 mi NNW 11.5 mph - N/A Snow Light Snow
10:11 PM 30.2 °F 21.3 °F 28.4 °F 93% 30.18 in 2.0 mi NNW 10.4 mph - N/A Snow Light Snow
10:31 PM 30.2 °F 20.8 °F 28.4 °F 93% 30.18 in 2.5 mi NNW 11.5 mph - N/A Snow Light Snow
10:51 PM 30.2 °F 20.2 °F 28.4 °F 93% 30.18 in 2.5 mi NW 12.7 mph 16.1 mph N/A Snow Light Snow
11:11 PM 30.2 °F 19.3 °F 28.4 °F 93% 30.18 in 2.5 mi NNW 15.0 mph 18.4 mph N/A Snow Light Snow
11:31 PM 30.2 °F 21.3 °F 28.4 °F 93% 30.18 in 3.0 mi NNW 10.4 mph 18.4 mph N/A Snow Light Snow
11:51 PM 30.2 °F 21.9 °F 28.4 °F 93% 30.18 in 3.0 mi NNW 9.2 mph - N/A Snow Light Snow